QXE2443 KPSP-KSEA

Flight info

Callsign QXE2443
Flight time N/A
Altitude 30000
Route YUCCA1 PMD LANDO TILTS/N0451F320 LKV HAWKZ8
Aircraft E75L/M-SDE3GILORVW/S

Departure

Time 2026-05-09 02:58
Airport Palm Springs International Airport (KPSP)

Arrival

Time N/A
Airport Seattle–Tacoma International Airport (KSEA)
Time Latitude Longitude Altitude Speed Heading
2026-05-09 02:31 33.82379 -116.50652 418 ft 0 kts 193°
2026-05-09 02:40 33.82391 -116.50656 421 ft 17 kts 194°
2026-05-09 02:41 33.82387 -116.50653 421 ft 0 kts 193°
2026-05-09 02:50 33.82393 -116.50651 419 ft 4 kts 193°
2026-05-09 02:51 33.82420 -116.50644 417 ft 4 kts 191°
2026-05-09 02:51 33.82445 -116.50638 414 ft 3 kts 192°
2026-05-09 02:51 33.82468 -116.50633 420 ft 4 kts 183°
2026-05-09 02:51 33.82494 -116.50638 420 ft 4 kts 154°
2026-05-09 02:52 33.82502 -116.50644 419 ft 2 kts 145°
2026-05-09 02:53 33.82486 -116.50630 417 ft 6 kts 145°
2026-05-09 02:54 33.82437 -116.50588 418 ft 11 kts 143°
2026-05-09 02:54 33.82370 -116.50527 413 ft 14 kts 143°
2026-05-09 02:54 33.82303 -116.50440 410 ft 13 kts 81°
2026-05-09 02:54 33.82299 -116.50365 409 ft 8 kts 150°
2026-05-09 02:55 33.82244 -116.50329 412 ft 10 kts 150°
2026-05-09 02:55 33.82194 -116.50285 411 ft 7 kts 126°
2026-05-09 02:55 33.82165 -116.50257 411 ft 8 kts 144°
2026-05-09 02:55 33.82110 -116.50209 407 ft 12 kts 144°
2026-05-09 02:56 33.82031 -116.50138 408 ft 16 kts 143°
2026-05-09 02:56 33.81934 -116.50051 405 ft 19 kts 143°
2026-05-09 02:56 33.81848 -116.49941 401 ft 15 kts 86°
2026-05-09 02:56 33.81865 -116.49831 399 ft 12 kts 52°
2026-05-09 02:57 33.81913 -116.49827 399 ft 6 kts 323°
2026-05-09 02:57 33.82063 -116.49961 405 ft 63 kts 323°
2026-05-09 02:57 33.82625 -116.50462 416 ft 135 kts 323°
2026-05-09 02:57 33.83466 -116.51240 838 ft 168 kts 322°
2026-05-09 02:58 33.84418 -116.52111 1324 ft 168 kts 321°
2026-05-09 02:58 33.85402 -116.52962 1802 ft 185 kts 323°
2026-05-09 02:58 33.86515 -116.53890 2466 ft 203 kts 323°
2026-05-09 02:58 33.87683 -116.54859 3145 ft 209 kts 322°
2026-05-09 02:59 33.88907 -116.55890 3807 ft 223 kts 322°
2026-05-09 02:59 33.90360 -116.56719 4766 ft 241 kts 346°
2026-05-09 02:59 33.92086 -116.56661 5464 ft 261 kts 13°
2026-05-09 02:59 33.93739 -116.55637 6284 ft 274 kts 40°
2026-05-09 03:00 33.95002 -116.53906 7170 ft 280 kts 53°
2026-05-09 03:00 33.96130 -116.51977 8073 ft 283 kts 51°
2026-05-09 03:00 33.97613 -116.50434 8937 ft 283 kts 26°
2026-05-09 03:00 33.99519 -116.49941 9822 ft 284 kts 358°
2026-05-09 03:01 34.01487 -116.50187 10716 ft 285 kts 353°
2026-05-09 03:01 34.03457 -116.50512 11651 ft 287 kts 352°
2026-05-09 03:01 34.05430 -116.50901 12549 ft 288 kts 350°
2026-05-09 03:01 34.07401 -116.51367 13501 ft 290 kts 348°
2026-05-09 03:02 34.09375 -116.51900 14376 ft 292 kts 346°
2026-05-09 03:02 34.11346 -116.52559 15264 ft 294 kts 342°
2026-05-09 03:02 34.13312 -116.53263 16180 ft 296 kts 343°
2026-05-09 03:02 34.15284 -116.53954 17125 ft 295 kts 342°
2026-05-09 03:03 34.17236 -116.54684 18076 ft 292 kts 342°
2026-05-09 03:03 34.19160 -116.55433 18912 ft 288 kts 341°
2026-05-09 03:03 34.21048 -116.56184 19750 ft 283 kts 340°
2026-05-09 03:03 34.22896 -116.56927 20574 ft 277 kts 340°
2026-05-09 03:04 34.24681 -116.57644 21400 ft 270 kts 340°
2026-05-09 03:04 34.26436 -116.58351 22229 ft 262 kts 340°
2026-05-09 03:04 34.28137 -116.59038 23029 ft 252 kts 340°
2026-05-09 03:04 34.29766 -116.59697 23725 ft 241 kts 340°
2026-05-09 03:05 34.31311 -116.60323 24309 ft 229 kts 340°
2026-05-09 03:05 34.32816 -116.60932 24636 ft 231 kts 340°
2026-05-09 03:05 34.34393 -116.61558 24676 ft 246 kts 340°
2026-05-09 03:05 34.36066 -116.62215 24777 ft 259 kts 341°
2026-05-09 03:06 34.37825 -116.62907 24956 ft 272 kts 340°
2026-05-09 03:06 34.39668 -116.63634 25126 ft 285 kts 341°
2026-05-09 03:06 34.41596 -116.64394 25308 ft 298 kts 341°
2026-05-09 03:06 34.43609 -116.65188 25563 ft 309 kts 340°
2026-05-09 03:07 34.45683 -116.66025 25826 ft 319 kts 336°
2026-05-09 03:07 34.47667 -116.67320 25947 ft 332 kts 322°
2026-05-09 03:07 34.49337 -116.69319 26076 ft 345 kts 306°
2026-05-09 03:07 34.50474 -116.71921 26317 ft 356 kts 290°
2026-05-09 03:08 34.51015 -116.74873 26758 ft 362 kts 281°
2026-05-09 03:08 34.51402 -116.77912 27092 ft 369 kts 279°
2026-05-09 03:08 34.51749 -116.81007 27566 ft 371 kts 279°
2026-05-09 03:08 34.52082 -116.84074 27982 ft 374 kts 279°
2026-05-09 03:09 34.52409 -116.87222 28390 ft 379 kts 279°
2026-05-09 03:09 34.52727 -116.90455 28809 ft 382 kts 278°
2026-05-09 03:09 34.53033 -116.93622 29276 ft 384 kts 278°
2026-05-09 03:09 34.53339 -116.96856 29673 ft 388 kts 278°
2026-05-09 03:10 34.53630 -117.00102 30023 ft 388 kts 278°
2026-05-09 03:10 34.53914 -117.03417 30023 ft 401 kts 278°
2026-05-09 03:10 34.54193 -117.06833 30056 ft 413 kts 278°
2026-05-09 03:10 34.54479 -117.10339 30039 ft 424 kts 278°
2026-05-09 03:11 34.54775 -117.13974 29865 ft 439 kts 278°
2026-05-09 03:11 34.55445 -117.21484 30010 ft 458 kts 279°
2026-05-09 03:12 34.56183 -117.29231 30050 ft 464 kts 279°
2026-05-09 03:12 34.56906 -117.37012 30045 ft 464 kts 278°
2026-05-09 03:13 34.57980 -117.48706 30045 ft 466 kts 279°
2026-05-09 03:13 34.58692 -117.56527 30023 ft 466 kts 279°
2026-05-09 03:14 34.59399 -117.64357 29992 ft 466 kts 279°
2026-05-09 03:14 34.60097 -117.72129 29958 ft 466 kts 279°
2026-05-09 03:15 34.60794 -117.79955 29965 ft 466 kts 279°
2026-05-09 03:15 34.61484 -117.87773 29996 ft 466 kts 279°
2026-05-09 03:16 34.62170 -117.95583 30009 ft 466 kts 279°
2026-05-09 03:16 34.62929 -118.03389 30025 ft 463 kts 285°
2026-05-09 03:17 34.63974 -118.07051 30015 ft 458 kts 300°
2026-05-09 03:17 34.65757 -118.10237 30067 ft 456 kts 310°
2026-05-09 03:17 34.69133 -118.15148 29990 ft 454 kts 313°
2026-05-09 03:18 34.73230 -118.21003 30002 ft 455 kts 312°
2026-05-09 03:18 34.77307 -118.26869 30008 ft 454 kts 312°
2026-05-09 03:19 34.81378 -118.32741 30002 ft 454 kts 312°
2026-05-09 03:19 34.85449 -118.38622 29985 ft 455 kts 312°
2026-05-09 03:20 34.89522 -118.44517 30045 ft 455 kts 312°
2026-05-09 03:20 34.93589 -118.50414 30077 ft 454 kts 312°
2026-05-09 03:21 34.97648 -118.56309 30092 ft 455 kts 312°
2026-05-09 03:21 35.02380 -118.61299 30116 ft 450 kts 335°
2026-05-09 03:22 35.05330 -118.62534 30137 ft 449 kts 347°
2026-05-09 03:22 35.08391 -118.63330 30087 ft 450 kts 348°
2026-05-09 03:22 35.14490 -118.64779 30086 ft 447 kts 349°
2026-05-09 03:23 35.20588 -118.66235 29984 ft 446 kts 349°
2026-05-09 03:23 35.26698 -118.67698 29981 ft 447 kts 349°
2026-05-09 03:24 35.32756 -118.69149 29980 ft 445 kts 348°
2026-05-09 03:24 35.38887 -118.70615 29987 ft 446 kts 348°
2026-05-09 03:25 35.44922 -118.72070 29987 ft 446 kts 348°
2026-05-09 03:25 35.51015 -118.73537 29981 ft 446 kts 348°
2026-05-09 03:26 35.57103 -118.75005 29991 ft 446 kts 348°
2026-05-09 03:26 35.63193 -118.76475 30001 ft 446 kts 348°
2026-05-09 03:27 35.69278 -118.77947 30009 ft 446 kts 348°
2026-05-09 03:27 35.75365 -118.79422 29994 ft 445 kts 348°
2026-05-09 03:28 35.81451 -118.80900 29993 ft 446 kts 348°
2026-05-09 03:28 35.87528 -118.82374 30008 ft 446 kts 348°
2026-05-09 03:29 35.93620 -118.83858 30010 ft 446 kts 348°
2026-05-09 03:29 35.99710 -118.85342 30012 ft 446 kts 348°
2026-05-09 03:30 36.05791 -118.86827 30012 ft 446 kts 347°
2026-05-09 03:30 36.11875 -118.88314 30017 ft 446 kts 347°
2026-05-09 03:31 36.17969 -118.89808 30012 ft 446 kts 347°
2026-05-09 03:31 36.24056 -118.91301 29991 ft 446 kts 347°
2026-05-09 03:32 36.30143 -118.92799 29993 ft 446 kts 347°
2026-05-09 03:32 36.36245 -118.94164 30020 ft 447 kts 353°
2026-05-09 03:33 36.42471 -118.94472 30012 ft 447 kts 352°
2026-05-09 03:33 36.48607 -118.95634 29997 ft 445 kts 347°
2026-05-09 03:34 36.54711 -118.97033 30000 ft 446 kts 347°
2026-05-09 03:34 36.60759 -118.98452 30014 ft 445 kts 347°
2026-05-09 03:35 36.66841 -118.99885 30013 ft 444 kts 347°
2026-05-09 03:35 36.72919 -119.01319 30021 ft 445 kts 347°
2026-05-09 03:36 36.79001 -119.02752 30010 ft 444 kts 346°
2026-05-09 03:36 36.85078 -119.04193 30016 ft 445 kts 346°
2026-05-09 03:37 36.91148 -119.05634 30046 ft 444 kts 346°
2026-05-09 03:37 36.97227 -119.07074 30039 ft 445 kts 346°
2026-05-09 03:38 37.03304 -119.08519 30041 ft 444 kts 346°
2026-05-09 03:38 37.09376 -119.09965 30034 ft 444 kts 346°
2026-05-09 03:39 37.15449 -119.11417 30039 ft 443 kts 346°
2026-05-09 03:39 37.21507 -119.12862 30068 ft 443 kts 346°
2026-05-09 03:40 37.27568 -119.14311 30046 ft 443 kts 346°
2026-05-09 03:40 37.33625 -119.15764 30073 ft 443 kts 345°
2026-05-09 03:41 37.39674 -119.17215 30077 ft 442 kts 345°
2026-05-09 03:41 37.45720 -119.18666 30087 ft 442 kts 345°
2026-05-09 03:42 37.51768 -119.20126 30086 ft 442 kts 345°
2026-05-09 03:42 37.57801 -119.21582 30120 ft 441 kts 345°
2026-05-09 03:43 37.63837 -119.23037 30069 ft 441 kts 345°
2026-05-09 03:43 37.69870 -119.24503 30091 ft 442 kts 345°
2026-05-09 03:44 37.75896 -119.25990 30122 ft 442 kts 344°
2026-05-09 03:44 37.81915 -119.27434 30081 ft 437 kts 344°
2026-05-09 03:45 37.87910 -119.28863 30096 ft 442 kts 344°
2026-05-09 03:45 37.93940 -119.30335 30094 ft 441 kts 344°
2026-05-09 03:46 37.99958 -119.31849 30083 ft 441 kts 343°
2026-05-09 03:46 38.05965 -119.33297 30090 ft 441 kts 344°
2026-05-09 03:47 38.11990 -119.34749 30168 ft 440 kts 343°
2026-05-09 03:47 38.15009 -119.35480 30065 ft 441 kts 343°
2026-05-09 03:47 38.18006 -119.36230 30061 ft 440 kts 343°
2026-05-09 03:48 38.24018 -119.37734 30114 ft 440 kts 344°
2026-05-09 03:48 38.30040 -119.39206 30116 ft 441 kts 343°
2026-05-09 03:49 38.36060 -119.40692 30109 ft 441 kts 343°
2026-05-09 03:49 38.42073 -119.42173 30105 ft 440 kts 343°
2026-05-09 03:50 38.48094 -119.43675 30074 ft 441 kts 343°
2026-05-09 03:50 38.54116 -119.45160 30089 ft 440 kts 343°
2026-05-09 03:51 38.60123 -119.46641 30088 ft 440 kts 343°
2026-05-09 03:51 38.66143 -119.48146 30086 ft 440 kts 343°
2026-05-09 03:52 38.72141 -119.49643 30074 ft 439 kts 343°
2026-05-09 03:52 38.78139 -119.51139 30089 ft 439 kts 343°
2026-05-09 03:53 38.84146 -119.52634 30103 ft 440 kts 343°
2026-05-09 03:53 38.90152 -119.54129 30104 ft 440 kts 342°
2026-05-09 03:54 38.96173 -119.55649 30118 ft 440 kts 342°
2026-05-09 03:54 39.02179 -119.57167 30120 ft 440 kts 342°
2026-05-09 03:55 39.08157 -119.58679 30107 ft 441 kts 343°
2026-05-09 03:55 39.14184 -119.60184 30157 ft 441 kts 342°
2026-05-09 03:56 39.20196 -119.61713 30178 ft 441 kts 343°
2026-05-09 03:56 39.26220 -119.63232 30157 ft 439 kts 342°
2026-05-09 03:57 39.32235 -119.64769 30133 ft 442 kts 342°
2026-05-09 03:57 39.38274 -119.66282 30084 ft 438 kts 342°
2026-05-09 03:58 39.44276 -119.67812 30150 ft 441 kts 342°
2026-05-09 03:58 39.50241 -119.69323 30130 ft 438 kts 342°
2026-05-09 03:59 39.56245 -119.70860 30130 ft 440 kts 342°
2026-05-09 03:59 39.62250 -119.72408 30174 ft 440 kts 342°
2026-05-09 04:00 39.68252 -119.73950 30178 ft 440 kts 342°
2026-05-09 04:00 39.74263 -119.75491 30158 ft 439 kts 342°
2026-05-09 04:01 39.80244 -119.77040 30157 ft 440 kts 342°
2026-05-09 04:01 39.86253 -119.78582 30114 ft 439 kts 342°
2026-05-09 04:02 39.91233 -119.79852 30074 ft 438 kts 342°
2026-05-09 04:02 39.97228 -119.81410 30040 ft 439 kts 342°
2026-05-09 04:03 40.03212 -119.82961 30008 ft 439 kts 342°
2026-05-09 04:03 40.09194 -119.84549 30000 ft 437 kts 342°
2026-05-09 04:04 40.15193 -119.86090 29991 ft 440 kts 342°
2026-05-09 04:04 40.21195 -119.87630 30005 ft 438 kts 342°
2026-05-09 04:05 40.27159 -119.89186 29957 ft 431 kts 341°
2026-05-09 04:05 40.33047 -119.90785 30024 ft 438 kts 342°
2026-05-09 04:06 40.39061 -119.92318 29996 ft 438 kts 342°
2026-05-09 04:06 40.45032 -119.93861 30000 ft 438 kts 342°
2026-05-09 04:07 40.51013 -119.95433 30005 ft 439 kts 341°
2026-05-09 04:07 40.56991 -119.97002 30025 ft 438 kts 342°
2026-05-09 04:08 40.62969 -119.98577 30023 ft 438 kts 342°
2026-05-09 04:08 40.68918 -120.00139 30032 ft 439 kts 342°
2026-05-09 04:09 40.74884 -120.01724 30041 ft 438 kts 341°
2026-05-09 04:09 40.80856 -120.03309 30046 ft 438 kts 342°
2026-05-09 04:10 40.86838 -120.04897 30046 ft 438 kts 341°
2026-05-09 04:10 40.92813 -120.06492 30059 ft 438 kts 342°
2026-05-09 04:11 40.98795 -120.08081 30068 ft 438 kts 342°
2026-05-09 04:11 41.04769 -120.09671 30057 ft 438 kts 342°
2026-05-09 04:12 41.10759 -120.11289 30065 ft 439 kts 342°
2026-05-09 04:12 41.16739 -120.12911 30124 ft 436 kts 341°
2026-05-09 04:13 41.22706 -120.14543 30124 ft 440 kts 342°
2026-05-09 04:13 41.28665 -120.16116 30070 ft 431 kts 341°
2026-05-09 04:14 41.34577 -120.17755 30107 ft 439 kts 342°
2026-05-09 04:14 41.40524 -120.19330 30129 ft 431 kts 341°
2026-05-09 04:15 41.46436 -120.20960 30124 ft 437 kts 341°
2026-05-09 04:15 41.52405 -120.22522 30102 ft 437 kts 342°
2026-05-09 04:16 41.58391 -120.24103 30099 ft 437 kts 342°
2026-05-09 04:16 41.64315 -120.25770 30123 ft 435 kts 341°
2026-05-09 04:17 41.70260 -120.27424 30097 ft 436 kts 342°
2026-05-09 04:17 41.76205 -120.29040 30123 ft 437 kts 342°
2026-05-09 04:18 41.82161 -120.30675 30113 ft 438 kts 342°
2026-05-09 04:18 41.88118 -120.32321 30146 ft 437 kts 342°
2026-05-09 04:19 41.94073 -120.33955 30166 ft 437 kts 342°
2026-05-09 04:19 41.99989 -120.35579 30193 ft 436 kts 342°
2026-05-09 04:20 42.05944 -120.37222 30202 ft 437 kts 342°
2026-05-09 04:20 42.11897 -120.38867 30207 ft 437 kts 342°
2026-05-09 04:21 42.17856 -120.40511 30205 ft 436 kts 342°
2026-05-09 04:22 42.26793 -120.42992 30153 ft 437 kts 342°
2026-05-09 04:22 42.32752 -120.44653 30157 ft 437 kts 342°
2026-05-09 04:23 42.38710 -120.46305 30136 ft 436 kts 342°
2026-05-09 04:23 42.44655 -120.47963 30148 ft 436 kts 342°
2026-05-09 04:24 42.50518 -120.49835 30120 ft 427 kts 332°
2026-05-09 04:24 42.55775 -120.53399 30164 ft 423 kts 328°
2026-05-09 04:25 42.61107 -120.56856 30130 ft 428 kts 330°
2026-05-09 04:25 42.66541 -120.60221 30153 ft 429 kts 330°
2026-05-09 04:26 42.72007 -120.63584 30142 ft 433 kts 330°
2026-05-09 04:26 42.77500 -120.66970 30150 ft 433 kts 330°
2026-05-09 04:27 42.82990 -120.70361 30156 ft 434 kts 330°
2026-05-09 04:27 42.88451 -120.73742 30151 ft 434 kts 330°
2026-05-09 04:28 42.93957 -120.77157 30156 ft 434 kts 330°
2026-05-09 04:28 42.99454 -120.80583 30177 ft 433 kts 330°
2026-05-09 04:29 43.04958 -120.84015 30143 ft 435 kts 330°
2026-05-09 04:29 43.10462 -120.87437 30157 ft 434 kts 330°
2026-05-09 04:30 43.15962 -120.90874 30160 ft 434 kts 330°
2026-05-09 04:30 43.21455 -120.94315 30166 ft 435 kts 330°
2026-05-09 04:31 43.26956 -120.97749 30174 ft 435 kts 330°
2026-05-09 04:31 43.32473 -121.01233 30159 ft 437 kts 330°
2026-05-09 04:32 43.37995 -121.04719 30197 ft 437 kts 330°
2026-05-09 04:32 43.43525 -121.08212 30167 ft 437 kts 330°
2026-05-09 04:33 43.49050 -121.11709 30167 ft 437 kts 330°
2026-05-09 04:33 43.54569 -121.15206 30173 ft 437 kts 330°
2026-05-09 04:34 43.60097 -121.18715 30170 ft 437 kts 330°
2026-05-09 04:34 43.65616 -121.22234 30175 ft 437 kts 330°
2026-05-09 04:35 43.71096 -121.25732 30166 ft 437 kts 330°
2026-05-09 04:35 43.76607 -121.29253 30173 ft 436 kts 330°
2026-05-09 04:36 43.82120 -121.32767 30180 ft 436 kts 330°
2026-05-09 04:36 43.87644 -121.36255 30180 ft 436 kts 330°
2026-05-09 04:37 43.93167 -121.39755 30178 ft 436 kts 330°
2026-05-09 04:37 43.98681 -121.43262 30090 ft 437 kts 330°
2026-05-09 04:37 44.01435 -121.45011 30245 ft 434 kts 330°
2026-05-09 04:38 44.04192 -121.46770 30180 ft 436 kts 330°
2026-05-09 04:38 44.09706 -121.50290 30209 ft 436 kts 330°
2026-05-09 04:39 44.15219 -121.53815 30186 ft 436 kts 330°
2026-05-09 04:39 44.20727 -121.57346 30181 ft 436 kts 330°
2026-05-09 04:40 44.26205 -121.60863 30176 ft 436 kts 330°
2026-05-09 04:40 44.31712 -121.64407 30186 ft 436 kts 330°
2026-05-09 04:41 44.37223 -121.67961 30183 ft 436 kts 330°
2026-05-09 04:41 44.42728 -121.71519 30182 ft 436 kts 330°
2026-05-09 04:42 44.48236 -121.75086 30190 ft 436 kts 330°
2026-05-09 04:42 44.53742 -121.78657 30190 ft 436 kts 330°
2026-05-09 04:43 44.59244 -121.82236 30211 ft 437 kts 330°
2026-05-09 04:43 44.64755 -121.85827 30193 ft 437 kts 330°
2026-05-09 04:44 44.70291 -121.89443 30207 ft 439 kts 330°
2026-05-09 04:44 44.75834 -121.93073 30208 ft 439 kts 330°
2026-05-09 04:45 44.81352 -121.96692 30193 ft 435 kts 330°
2026-05-09 04:45 44.86866 -122.00316 30189 ft 439 kts 330°
2026-05-09 04:46 44.92371 -122.03936 30228 ft 441 kts 330°
2026-05-09 04:46 44.97917 -122.07583 30210 ft 440 kts 330°
2026-05-09 04:47 45.03438 -122.11247 30227 ft 441 kts 331°
2026-05-09 04:47 45.09001 -122.14935 30217 ft 442 kts 331°
2026-05-09 04:48 45.14523 -122.18602 30179 ft 425 kts 331°
2026-05-09 04:48 45.17127 -122.20331 30155 ft 402 kts 330°
2026-05-09 04:48 45.19598 -122.21972 30181 ft 382 kts 330°
2026-05-09 04:49 45.24412 -122.25205 30264 ft 388 kts 331°
2026-05-09 04:49 45.29314 -122.28471 30223 ft 391 kts 331°
2026-05-09 04:50 45.33386 -122.31198 30211 ft 389 kts 330°
2026-05-09 04:50 45.38290 -122.34490 30210 ft 390 kts 330°
2026-05-09 04:51 45.43192 -122.37785 30215 ft 389 kts 331°
2026-05-09 04:51 45.48085 -122.41081 30224 ft 389 kts 331°
2026-05-09 04:52 45.52974 -122.44379 30219 ft 389 kts 331°
2026-05-09 04:52 45.57872 -122.47691 30225 ft 389 kts 330°
2026-05-09 04:53 45.62748 -122.50993 30231 ft 388 kts 330°